Location: Campillo
(40.8621°N, 4.2488°W)
Time: 12:37:37
(UTC+00:00)

Cosmos 1782 - Pass Details

Date: 11 May 2021
Orbit: 536 x 550 km, 82.5° (Epoch: 14 June)

Event Time Altitude Azimuth Distance (km) Brightness Sun altitude
Exits shadow 20:22:49 11° 154° (SSE) 1,740 4.8 -10.5°
Maximum altitude 20:26:12 33° 92° (E) 934 3.6 -11.0°
Drops below altitude 10° 20:29:49 10° 27° (NNE) 1,821 5.6 -11.5°
Sets 20:32:07 0° 18° (NNE) 2,716 6.6 -11.9°
